Regional Weather Roundup
Issued by NWS

Home | Current Version | Previous Version | Graphics & Text | Print | Product List | Glossary On
Versions: 1 2 3 4 5 6 7 8 9 10 11 12 13 14 15 16 17 18 19 20 21 22 23 24 25 26 27 28 29 30 31 32 33 34 35 36 37 38 39 40 41 42 43 44 45 46 47 48 49 50
000
ASUS43 KMKX 200900
RWRWI

WISCONSIN REGIONAL WEATHER ROUNDUP
NATIONAL WEATHER SERVICE MILWAUKEE/SULLIVAN WI
400 AM CDT THU JUL 20 2017

NOTE: "FAIR" INDICATES FEW OR NO CLOUDS BELOW 12,000 FEET WITH NO
SIGNIFICANT WEATHER AND/OR OBSTRUCTIONS TO VISIBILITY.

WIZ001-002-006>008-014>016-023>028-201000-
NORTHWEST WISCONSIN

CITY           SKY/WX    TMP DP  RH WIND       PRES   REMARKS
SUPERIOR ARPT  NOT AVBL
ASHLAND        CLEAR     59  57  93 SW7       29.92R
HAYWARD        CLEAR     56  54  93 NE3       29.95S
SIREN          CLEAR     61  60  97 CALM      29.95S
CUMBERLAND     CLEAR     63  61  94 N5        29.95S
RICE LAKE      CLEAR     61  60  97 S3        29.97R FOG
CHETEK         NOT AVBL
LADYSMITH      CLEAR     65  63  91 W3        29.96R
EAU CLAIRE     CLOUDY    69  68  96 CALM      29.94R
MENOMONIE      MOCLDY    68  67  99 CALM      29.95R FOG
NEW RICHMOND   FOG       64  64  99 CALM      29.95S VSB 1/4
OSCEOLA        CLEAR     64  64 100 CALM      29.97R FOG
$$

WIZ003>005-009-010-017-018-201000-
NORTH CENTRAL WISCONSIN

CITY           SKY/WX    TMP DP  RH WIND       PRES   REMARKS
MANITOWISH WTR CLEAR     56  56 100 CALM      29.94S
ARBOR VITAE    CLEAR     62  60  93 CALM      29.94S
WOODRUFF       CLEAR     62  60  93 CALM      29.94S
RHINELANDER    CLEAR     58  58 100 W5        29.95S
EAGLE RIVER    CLEAR     56  56 100 CALM      29.94S FOG
LAND O LAKES   FOG       55  55 100 CALM      29.95S VSB 3/4
PHILLIPS       CLEAR     60  60 100 CALM      29.94S
TOMAHAWK         N/A     57  56  96 CALM      29.95S
MEDFORD        CLOUDY    65  64  96 W3        29.95R
MERRILL        CLOUDY    62  62 100 CALM      29.95R
$$

WIZ029-030-035-036-043>047-201000-
CENTRAL WISCONSIN

CITY           SKY/WX    TMP DP  RH WIND       PRES   REMARKS
WAUSAU         CLOUDY    68  66  93 SW7       29.95R
MOSINEE        CLOUDY    66  64  94 SW9       29.98R
MARSHFIELD     CLOUDY    67  65  93 SW8       29.97R
STEVENS POINT  CLOUDY    65  65 100 SW9       29.97R
WAUPACA        CLOUDY    69  68  96 W8        29.94F
WAUTOMA        RAIN      67  66  97 SW14      29.97R
WISC RAPIDS    CLOUDY    68  67  96 SW7       29.98R
CAMP DOUGLAS   LGT RAIN  68  68 100 CALM      29.97F
$$

WIZ011>013-019>022-031-037>040-048>050-201000-
NORTHEAST WISCONSIN

CITY           SKY/WX    TMP DP  RH WIND       PRES   REMARKS
ANTIGO         CLOUDY    65  64  95 W8        29.96R
SHAWANO        CLOUDY    69  64  81 W6        29.92R
OCONTO         CLOUDY    67  59  75 SW6       29.88F
STURGEON BAY     N/A     68  61  78 SW8       29.89S
GREEN BAY      CLOUDY    70  67  90 W9        29.92S
MANITOWOC      NOT AVBL
APPLETON       CLOUDY    68  66  94 W10       29.92S
CLINTONVILLE   CLOUDY    70  64  83 W8        29.93R
OSHKOSH        CLOUDY    68  66  93 VRB7      29.91F
$$

WIZ032>034-041-042-053>061-201000-
SOUTHWEST WISCONSIN

CITY           SKY/WX    TMP DP  RH WIND       PRES   REMARKS
LA CROSSE      LGT RAIN  71  70  96 SE5       29.97F
SPARTA         CLOUDY    65  65  99 NW3       30.00F
VIROQUA        CLOUDY    66  66 100 SE7G21    30.02S
BOSCOBEL       HVY RAIN  70  66  87 E24G36    29.97S FOG
PRAIRIE DU CHI CLOUDY    69  64  85 SE15      29.94F
PLATTEVILLE    CLOUDY    67  67 100 N16G22    30.05R
$$

WIZ056-057-062-063-064-067-068-201000-
SOUTH CENTRAL WISCONSIN

CITY           SKY/WX    TMP DP  RH WIND       PRES   REMARKS
REEDSBURG      RAIN      65  65 100 S6        30.00F
BARABOO/DELLS  CLOUDY    66  64  95 W9        30.04R
LONE ROCK      LGT RAIN  68  66  93 E9        29.99R
MINERAL POINT  RAIN      68  68 100 E13G22    30.01R
MADISON        TSTM      68  65  90 SW8       30.02R
MIDDLETON      CLOUDY    68  67  98 CALM      30.03R
WATERTOWN      CLOUDY    67  67 100 S3        29.96F
MONROE         TSTM      64  64 100 NE10      30.05R
JANESVILLE     HVY RAIN  68  68 100 N7G16     29.99F
$$

WIZ051-052-058>065-066-070>072-201000-
SOUTHEAST WISCONSIN

CITY           SKY/WX    TMP DP  RH WIND       PRES   REMARKS
MILWAUKEE      LGT RAIN  72  68  87 S8        29.97F
WAUKESHA       CLOUDY    66  64  94 W9        29.99F
MILWAUKEE/TIMM LGT RAIN  70  63  78 W9        30.00R
RACINE         CLOUDY    70  68  93 W3        30.02R
KENOSHA        LGT RAIN  70  67  90 NW6       30.02R
FOND DU LAC    LGT RAIN  68  65  90 SW14G20   29.93F
SHEBOYGAN      LGT RAIN  69  68  96 SW9       29.91F
WEST BEND      LGT RAIN  68  66  94 W7        29.96F
JUNEAU         LGT RAIN  67  65  95 CALM      29.96F
$$

LSZ147-162-201000-
LAKE SUPERIOR

STATION/POSITION TIME  TEMP    WIND        PRES    WAVE
                       AIR SEA DIR/SP/G            HT/PER
                 (UTC) (F)     (DEG/KT/KT) (MB)    (FT/S)
W MID LAKE BUOY  0750   51 47   CALM  /  2 1011.8F   0
DEVILS ISLAND    0800   60     200/  4/  4 1012.4F
SAXON HARBOR     0830   62     200/  7/  9 1012.2S
$$

LMZ867-665-643>646-201000-
LAKE MICHIGAN

STATION/POSITION TIME  TEMP    WIND        PRES    WAVE
                       AIR SEA DIR/SP/G            HT/PER
                 (UTC) (F)     (DEG/KT/KT) (MB)    (FT/S)
CHAMBERS ISLAND  0840   68     190/  5/  8 1011.2S
S GREEN BAY BUOY 0830   72 71  230/ 14/ 17 1012.1R
N MID LAKE BUOY  0750   67 65  150/  6/  6 1013.3F   0
NORTHPORT PIER   0840   67     130/  2/  5 1012.2R
KEWAUNEE LAKESHO 0830   70     240/  5/  7 1012.1F
SHEBOYGAN LAKESH 0800   71     290/ 10/ 13 1013.6F
PORT WASHINGTON  0830   71     280/  9/ 14 1015.6R
ATWATER BUOY     0709   72 68  260/  6/  8 1013.9F
MILWAUKEE LAKESH 0830   72     230/  4/  4   N/A
S MID LAKE BUOY  0750   69 69  330/ 10/ 16 1015.5R   3/ 5
KENOSHA   LAKESH 0800   70     270/ 11/ 16 1014.6
$$

TC  - TEMPERATURE IN CELSIUS
VSB - VISIBILITY IN STATUTE MILES
WCI - WIND CHILL INDEX
HX  - HEAT INDEX




USA.gov is the U.S. government's official web portal to all federal, state and local government web resources and services.